Hourly Data Report for April 09, 2016

All times are specified in Local Standard Time (LST). Add 1 hour to adjust for Daylight Saving Time where and when it is observed.

EMERSON AUTO
MANITOBA

49°00'00.000" N
97°14'15.000" W
242.00 m
5020881
71560
WEX

Download Data

Hourly Data (April 2016)
Hourly Data Report for April 9, 2016
Temp Definition
°C
Dew Point Temp Definition
°C
Rel Hum Definition
%
Wind Dir Definition
10's deg

Wind Spd Definition
km/h
Visibility Definition
km
Stn Press Definition
kPa
Hmdx Definition


Wind Chill Definition


Weather Definition


TIME
00:00 -8.2 -10.6 83 14 4   99.41   -10 LegendNANA
01:00 -8.6 -11.0 83 16 6   99.36   -12 LegendNANA
02:00 -8.2 -11.0 80 15 7   99.31   -12 LegendNANA
03:00 -7.8 -10.3 82 15 13   99.18   -14 LegendNANA
04:00 -7.8 -9.7 86 15 15   99.10   -14 LegendNANA
05:00 -7.3 -9.8 82 16 19   99.01   -14 LegendNANA
06:00 -6.9 -10.0 78 16 20   98.90   -14 LegendNANA
07:00 -6.3 -10.6 72 16 26   98.82   -14 LegendNANA
08:00 -5.4 -10.5 67 16 28   98.74   -13 LegendNANA
09:00 -4.2 -10.8 60 17 31   98.59   -12 LegendNANA
10:00 -3.1 -10.3 57 16 37   98.41   -11 LegendNANA
11:00 -2.5 -10.5 54 16 39   98.32   -11 LegendNANA
12:00 0.7 -10.0 45 16 42   98.09     LegendNANA
13:00 2.1 -10.6 38 16 51   97.83     LegendNANA
14:00 3.5 -10.4 36 16 44   97.67     LegendNANA
15:00 4.7 -10.7 32 17 49   97.57     LegendNANA
16:00 5.3 -10.6 31 17 38   97.49     LegendNANA
17:00 5.4 -10.6 31 16 43   97.34     LegendNANA
18:00 4.9 -10.3 32 15 40   97.17     LegendNANA
19:00 3.7 -9.3 38 14 32   97.12     LegendNANA
20:00 3.1 -8.6 42 14 36   96.95     LegendNANA
21:00 3.4 -8.1 43 15 40   96.83     LegendNANA
22:00 3.4 -8.5 41 16 36   96.83     LegendNANA
23:00 2.7 -7.1 49 18 34   96.79     LegendNANA

Notes on Data Quality.

Legend

  • E = Estimated
  • M = Missing
  • NA = Not Available
  • ‡ = Partner data that is not subject to review by the National Climate Archives
Date modified: